Flag for Germany Weather past 2 weeks in Fürstenwalde/Spree, Brandenburg, Germany

Now
54 °F

Overcast.


Feels Like: 54 °F
Forecast: 49 / 70 °F
Wind: 3 mph from West

Location: Lindenberg

Current Time: Apr 26, 2015 at 7:45:03 AM

Latest Report: Apr 26, 2015 at 7:00 AM


Visibility: 9 mi

Pressure: 29.77 "Hg

Humidity: 83%

Dew point: 49 °F

Location of Fürstenwalde/SpreeLocation

Historic Weather in Fürstenwalde/Spree — Graph

°F

Fürstenwalde/Spree temperature yesterday

Maximum temperature yesterday: 71 °F (at 4:00 PM)
Minimum temperature yesterday: 46 °F (at 6:00 AM)
Average temperature yesterday: 61 °F

Past Weeks' High & Low Weather Summary

 TemperatureHumidityPressure
High71 °F (Apr 25, 4:00 PM)97% (Apr 18, 7:00 AM)30.42 "Hg (Apr 18, 7:00 AM)
Low31 °F (Apr 18, 6:00 AM)19% (Apr 21, 3:00 PM)29.71 "Hg (Apr 25, 6:00 PM)
Average51 °F58%30.10 "Hg
* Reported Apr 11 6:00 AM — Apr 26 6:00 AM, Fürstenwalde/Spree, Weather by CustomWeather, © 2015

Note: Actual official high and low records may vary slightly from our data, if they occured in-between our weather recording intervals... More about our weather records

Advertising

Fürstenwalde/Spree weather history for previous 24 hours

 ConditionsComfort  
Time TempWeatherWind HumidityBarometerVisibility
6:00 AM
Sun, Apr 26
54 °FOvercast.3 mph85%29.76 "Hg12 mi
4:00 AM56 °FOvercast.2 mph76%29.75 "Hg22 mi
3:00 AM56 °FLight rain. Overcast.3 mph73%29.74 "Hg22 mi
2:00 AM58 °FOvercast.3 mph68%29.75 "Hg25 mi
1:00 AM59 °FOvercast.3 mph60%29.75 "Hg22 mi
12:00 AM60 °FLight rain. Overcast.2 mph54%29.74 "Hg22 mi
10:00 PM
Sat, Apr 25
62 °FOvercast.6 mph46%29.74 "Hg28 mi
9:00 PM62 °FPassing clouds.3 mph48%29.73 "Hg22 mi
8:00 PM62 °FLight rain. Overcast.2 mph50%29.72 "Hg19 mi
7:00 PM67 °FOvercast.7 mph34%29.72 "Hg16 mi
6:00 PM69 °FOvercast.7 mph28%29.71 "Hg12 mi
4:00 PM71 °FOvercast.6 mph26%29.72 "Hg12 mi
3:00 PM71 °FOvercast.5 mph26%29.74 "Hg9 mi
2:00 PM71 °FOvercast.6 mph27%29.76 "Hg9 mi
1:00 PM69 °FOvercast.7 mph30%29.78 "Hg9 mi
12:00 PM68 °FOvercast.6 mph33%29.79 "Hg9 mi
10:00 AM61 °FOvercast.2 mph45%29.81 "Hg9 mi
9:00 AM56 °FScattered clouds.2 mph59%29.82 "Hg6 mi
8:00 AM50 °FPassing clouds.3 mph71%29.82 "Hg6 mi
7:00 AM47 °FSunny.3 mph74%29.83 "Hg6 mi
Weather by CustomWeather, © 2015

See weather overviewHow to use our weather pages